This demonstration page uses our WeatherBlox Daily Observations layout. Learn more.

41.55636, -103.73856

Hourly Observations for December 30, 2019

Temp ( °F °C ) Dew Point ( °F °C ) Humidity (%) Winds ( mph kmh ) Pressure ( in mb ) Visibility ( mi km ) Precip ( " mm )
12:58 am 00:58 Clear 21 -6.3 13 -10.7 71 71 NW 23 37 30.06 1018 10 16.0934 0 0
1:58 am 01:58 Mostly Cloudy 21 -6.3 13 -10.8 71 71 NW 25 41 30.06 1018 10 16.0934 0 0
2:58 am 02:58 Mostly Cloudy 20 -6.4 12 -11.2 69 69 NW 26 43 30.08 1019 10 16.0934 0 0
3:58 am 03:58 Mostly Cloudy 20 -6.8 11 -11.6 69 69 NW 28 44 30.09 1019 10 16.0934 0 0
4:58 am 04:58 Mostly Cloudy 19 -7.4 10 -12 70 70 NW 26 43 30.1 1019 10 16.0934 0 0
5:58 am 05:58 Clear 18 -7.7 10 -12.5 69 69 NW 28 44 30.1 1019 10 16.0934 0 0
6:58 am 06:58 Clear 17 -8.1 9 -12.6 70 70 NW 29 46 30.11 1020 10 16.0934 0 0
7:58 am 07:58 Mostly Cloudy 18 -7.9 9 -12.7 69 69 WNW 24 39 30.11 1020 10 16.0934 0 0
8:58 am 08:58 Mostly Cloudy 18 -7.9 9 -12.7 69 69 NW 24 39 30.12 1020 10 16.0934 0 0
9:58 am 09:58 Mostly Cloudy 18 -7.6 9 -12.7 67 67 NW 23 37 30.14 1021 10 16.0934 0 0
10:58 am 10:58 Clear 17 -8.2 8 -13.3 67 67 NW 21 33 30.16 1021 10 16.0934 0 0
11:58 am 11:58 Mostly Cloudy 14 -9.8 7 -14 72 72 NW 10 17 30.19 1022 10 16.0934 0 0
12:58 pm 12:58 Clear 14 -9.8 7 -14.1 71 71 WNW 14 22 30.22 1023 10 16.0934 0 0
1:58 pm 13:58 Clear 14 -9.9 7 -14.1 72 72 WNW 15 24 30.25 1025 10 16.0934 0 0
2:58 pm 14:58 Sunny 15 -9.7 7 -14.1 71 71 WNW 12 19 30.27 1025 10 16.0934 0 0
3:58 pm 15:58 Sunny 17 -8.6 8 -13.6 67 67 WNW 17 28 30.3 1026 10 16.0934 0 0
4:58 pm 16:58 Sunny 18 -7.7 8 -13.2 65 65 WNW 16 26 30.32 1027 10 16.0934 0 0
5:58 pm 17:58 Sunny 20 -6.7 10 -12.3 65 65 WNW 15 24 30.3 1026 10 16.0934 0 0
6:58 pm 18:58 Sunny 24 -4.6 13 -10.6 63 63 NW 21 33 30.26 1025 10 16.0934 0 0
7:59 pm 19:59 Sunny 25 -3.8 14 -10.2 62 62 NW 18 30 30.24 1024 10 16.0934 0 0
8:58 pm 20:58 Sunny 26 -3.5 14 -10 61 61 WNW 17 28 30.23 1024 10 16.0934 0 0
9:58 pm 21:58 Sunny 25 -3.7 14 -10.2 61 61 NW 15 24 30.24 1024 10 16.0934 0 0
10:58 pm 22:58 Sunny 24 -4.4 13 -10.8 61 61 WNW 14 22 30.25 1024 10 16.0934 0 0
11:58 pm 23:58 Clear 20 -6.8 10 -12.4 65 65 W 10 17 30.27 1025 10 16.0934 0 0

Powered by AerisWeather